Theta_e
320 319 320 319 316 317 316 316 319 318 314 313 312 313 313 313 314 315 318 323 324 327 329 333 332 331 333 334 338 349 350 353 350 351 351 350 348 350 347 347 352 351 352 351 351
320 320 319 320 318 317 317 316 316 319 319 314 313 312 313 313 314 315 320 322 323 325 326 329 329 332 335 337 344 347 349 351 348 348 347 349 350 349 349 345 346 354 352 350 351
320 320 320 319 320 318 317 317 316 316 320 318 313 313 313 313 314 316 319 322 323 324 325 331 329 330 333 336 344 346 345 346 346 345 343 345 349 347 345 344 347 354 352 351 350
320 320 320 320 319 320 317 318 316 316 317 322 314 313 312 313 328 324 322 321 323 323 325 331 329 330 333 337 341 346 344 344 342 343 344 346 349 349 347 343 342 353 353 352 350
320 320 320 320 320 319 319 317 318 316 316 321 317 313 312 318 317 324 322 322 321 322 326 329 328 330 336 340 341 341 343 338 338 339 339 343 349 352 352 347 348 349 354 353 352
320 320 320 320 320 319 320 318 318 316 315 320 319 313 312 319 322 324 322 321 321 322 327 330 329 332 336 338 339 340 340 337 338 337 340 343 350 352 351 349 352 352 354 354 353
320 320 320 320 320 319 319 318 319 316 315 320 319 313 314 316 322 323 323 327 321 323 329 330 332 333 335 336 338 339 339 336 335 338 342 346 353 351 352 351 353 356 355 355 354
320 320 320 320 320 319 319 318 317 315 316 321 317 313 314 321 321 321 324 328 326 326 329 331 332 335 335 335 339 339 338 338 339 340 342 341 352 346 339 345 354 357 354 355 353
319 320 320 320 320 319 318 316 315 315 318 321 315 315 323 323 322 321 323 325 327 329 331 332 333 335 335 334 336 338 338 338 342 341 344 347 351 346 339 346 357 357 356 355 352
318 319 320 320 320 319 316 315 315 318 321 318 320 323 324 324 322 321 322 325 327 329 332 332 333 331 332 333 337 340 340 341 343 343 343 349 351 347 349 350 356 355 355 354 352
317 318 319 320 320 318 315 317 319 321 321 323 323 323 324 323 322 320 322 325 326 329 329 332 330 332 333 335 337 339 340 341 343 343 343 347 353 352 350 348 353 354 355 354 353
316 317 318 320 320 318 315 324 328 325 328 329 326 325 327 323 319 320 323 325 325 328 329 329 331 332 334 335 337 338 340 340 342 341 338 344 349 348 347 346 354 354 354 354 351
316 317 318 319 320 319 318 318 326 326 327 329 329 327 327 323 322 322 324 325 326 328 329 330 332 333 334 336 338 335 335 337 342 341 340 352 354 347 349 347 351 350 350 351 350
316 318 318 319 318 321 321 322 323 324 327 329 329 329 327 323 323 324 324 325 326 328 329 330 331 334 334 335 337 335 334 336 338 339 341 338 358 348 347 350 348 349 348 349 347
318 319 319 319 327 324 325 322 323 323 332 330 330 330 328 322 323 323 325 325 323 326 329 331 332 333 336 334 334 332 335 337 337 336 335 343 349 350 341 346 348 348 348 349 348
322 322 320 319 320 325 324 325 326 328 333 332 331 328 324 322 322 324 325 326 326 324 326 327 331 332 334 334 333 332 332 335 335 333 334 341 345 350 345 343 346 346 348 348 347
323 324 321 320 321 323 324 325 328 331 329 331 327 327 324 321 321 321 325 325 325 324 324 327 328 328 332 331 332 330 329 332 334 333 346 347 354 349 342 343 344 342 347 348 348
320 323 322 320 325 323 323 325 332 328 327 329 328 325 324 322 321 323 326 326 325 325 324 325 327 328 330 330 332 330 328 330 337 343 343 344 348 347 338 340 341 343 345 345 344
321 320 320 320 324 324 325 328 331 331 330 330 330 329 326 324 321 322 325 326 326 325 325 323 328 329 330 332 329 328 330 330 333 337 336 347 345 345 341 340 343 340 343 343 346
325 328 327 321 324 324 326 326 329 329 330 334 334 330 328 326 321 322 324 326 326 326 325 325 325 328 331 330 329 327 331 335 335 340 344 350 349 349 343 345 344 340 343 344 345
326 330 326 324 319 325 327 328 328 328 329 335 335 332 329 327 324 322 323 326 327 326 325 324 323 326 328 328 329 328 329 336 333 336 340 352 348 343 342 342 343 338 343 343 345
328 333 325 321 325 326 326 327 327 328 329 331 333 333 332 328 325 324 325 326 328 327 325 324 323 324 326 328 330 328 328 329 334 338 340 347 348 340 339 337 340 341 339 343 345
327 331 325 323 326 325 325 326 327 328 329 332 332 332 334 334 328 326 327 328 328 326 326 326 324 323 324 328 329 329 328 329 329 330 341 348 346 338 338 341 342 341 343 343 345
327 336 326 325 325 326 329 331 328 328 329 330 332 333 333 333 332 331 328 328 329 327 328 328 323 324 325 335 335 337 335 333 334 330 339 339 347 341 341 343 341 341 341 343 347
330 336 334 332 326 326 328 332 334 332 330 330 331 337 341 338 339 338 337 334 329 329 328 324 323 325 333 335 336 334 335 335 335 333 331 341 343 345 344 340 340 342 342 343 344
330 330 330 332 335 327 327 331 333 332 332 333 339 340 339 338 340 340 338 335 338 334 327 325 323 326 329 335 332 332 335 336 336 341 341 339 339 337 340 339 340 341 341 343 340
327 327 329 333 336 338 335 333 334 335 336 335 335 338 336 334 334 337 336 337 333 336 337 327 323 326 328 330 332 334 335 333 337 340 341 343 340 338 339 340 339 337 337 338 337
Wind_Speed
12 12 12 11 9 8 8 10 11 10 10 10 11 12 13 15 15 17 22 12 11 10 12 15 17 19 18 28 17 13 3 1 7 3 5 1 12 8 14 19 13 8 23 31 34
13 12 11 11 10 9 8 8 10 10 9 9 9 10 11 13 17 23 20 17 16 13 11 13 23 24 16 22 6 4 3 3 6 7 3 19 18 9 4 5 10 13 24 30 32
13 12 12 11 11 10 9 8 8 9 9 8 8 8 8 10 14 17 12 20 18 17 14 14 17 23 25 24 5 7 4 4 7 9 7 6 22 17 15 5 17 26 29 31 30
13 12 12 12 11 11 10 8 7 8 8 8 7 7 7 7 1 4 5 11 12 11 15 17 16 22 14 11 4 4 13 2 7 5 3 6 21 7 10 8 5 24 27 27 29
14 12 11 12 12 11 11 8 7 7 8 8 7 6 6 5 12 3 6 10 12 13 18 17 23 25 16 5 3 3 2 3 11 8 10 14 17 11 3 13 16 24 24 25 21
15 13 12 11 11 11 11 9 6 7 8 8 7 6 6 6 7 8 9 12 14 17 19 16 16 22 13 8 4 4 7 5 11 10 6 7 10 14 2 10 21 23 25 26 22
15 14 12 11 11 11 10 7 5 6 8 7 6 7 11 20 4 4 8 7 12 16 18 14 18 24 19 11 5 5 7 6 9 11 5 13 5 1 1 9 26 26 12 17 19
15 14 13 10 10 10 9 5 4 6 7 6 6 6 11 5 10 8 8 13 8 13 15 16 20 22 15 18 9 5 6 5 5 6 4 1 4 7 7 5 4 33 26 18 15
16 15 12 10 9 8 6 2 3 6 6 6 4 5 12 4 17 15 11 14 14 14 18 17 16 8 16 8 6 4 7 7 5 1 3 6 3 9 6 1 12 18 20 19 16
16 15 13 10 8 6 1 4 5 6 6 6 8 7 13 15 15 14 14 17 20 18 19 21 4 5 8 6 6 4 2 4 6 2 4 15 8 5 9 4 14 13 16 14 11
16 14 12 9 7 4 7 9 5 3 12 13 10 13 12 7 13 16 17 16 16 19 8 16 4 10 15 12 10 6 6 9 6 6 3 8 7 11 14 10 21 21 22 13 8
17 14 11 8 7 7 13 9 2 8 11 19 24 26 22 11 13 17 19 17 18 8 13 7 12 15 16 11 6 11 8 8 5 14 8 5 8 6 5 13 24 23 15 11 14
18 14 10 8 7 9 14 22 2 9 5 12 26 29 19 8 17 23 25 27 7 10 11 11 14 19 18 16 9 6 6 6 9 4 2 9 4 5 4 10 27 22 19 14 17
19 14 9 5 4 5 5 4 8 4 4 7 16 13 22 13 9 17 26 21 7 13 14 12 20 18 16 6 11 5 9 10 5 1 6 8 4 6 2 2 8 23 19 16 15
19 12 8 10 5 12 3 5 4 4 4 10 12 10 18 16 10 23 26 26 12 9 8 15 14 13 13 10 5 10 5 2 5 6 4 2 6 4 4 2 2 19 25 23 19
18 11 9 11 14 8 4 8 6 2 7 9 13 10 11 18 19 14 25 27 22 12 10 12 24 12 14 5 7 8 8 5 6 3 4 5 8 4 2 4 3 9 25 30 26
15 9 12 14 11 9 5 2 2 5 8 13 10 17 13 10 14 10 16 14 12 7 10 11 13 13 13 7 5 6 5 3 5 3 2 9 9 8 11 12 4 14 21 29 24
8 5 12 12 13 14 9 2 6 10 12 3 9 15 14 11 12 12 14 11 13 12 6 7 10 10 9 8 5 7 8 5 5 3 3 5 7 7 2 13 15 11 31 28 30
5 1 7 14 18 11 5 5 6 7 5 10 18 15 10 12 9 9 11 15 15 15 10 7 10 11 14 4 9 10 4 8 4 3 5 1 4 8 4 7 10 18 28 24 29
5 4 4 11 19 11 4 7 9 12 19 12 8 9 10 14 12 9 11 14 15 17 13 14 6 10 14 11 10 10 4 5 4 3 1 1 5 6 6 3 5 15 24 24 27
5 3 9 9 18 7 5 6 10 26 27 3 8 10 11 13 14 10 12 9 18 14 14 13 5 18 6 9 10 4 3 3 6 6 8 4 5 8 7 10 14 18 27 27 25
4 3 13 17 7 6 9 7 12 24 33 5 9 17 8 13 11 15 13 13 26 23 12 12 3 6 11 8 14 10 11 11 7 6 5 4 6 10 18 12 9 18 30 30 28
3 6 13 16 4 7 11 18 23 22 20 6 9 10 4 5 7 14 11 12 19 18 12 7 4 5 11 9 3 5 8 7 5 3 7 6 5 8 16 15 11 11 17 16 31
4 2 8 19 21 13 13 13 16 25 17 16 10 10 8 21 7 7 10 13 15 12 10 6 6 7 7 6 4 2 11 11 2 3 10 11 6 10 16 13 13 36 17 23 19
3 3 4 4 11 12 14 9 20 17 13 14 9 14 6 6 11 11 13 5 6 13 6 4 6 7 9 8 4 6 5 12 7 8 5 14 13 7 7 5 12 16 14 26 18
6 6 11 20 17 12 14 12 18 20 10 3 17 17 14 6 3 5 7 7 6 11 7 3 6 4 4 8 9 8 12 9 15 14 15 11 5 8 8 4 14 28 21 22 39
9 11 8 13 10 6 3 11 15 7 10 13 7 7 9 7 5 10 9 15 5 2 5 4 4 3 6 6 10 9 9 15 1 16 17 7 9 5 5 8 16 19 21 49 49
Wind_Direction
339 342 344 346 335 306 284 271 266 265 265 267 271 275 276 274 267 261 252 232 250 252 275 289 300 306 282 263 253 161 117 301 161 84 294 353 84 55 92 70 55 328 163 151 151
331 334 337 338 340 324 305 285 272 266 266 267 271 277 281 281 276 261 244 225 223 235 270 288 295 315 299 262 188 105 111 255 136 185 203 129 101 76 12 31 83 103 145 153 156
325 325 327 329 332 333 312 298 281 267 262 265 268 275 282 291 298 274 261 227 220 233 253 268 295 306 303 295 153 162 141 212 171 101 134 65 131 176 143 313 167 151 158 161 168
321 320 319 321 325 329 322 302 290 268 257 256 262 268 278 282 254 355 223 203 221 238 241 261 284 287 276 270 170 133 214 258 63 129 193 123 142 154 161 206 191 156 155 167 175
324 314 311 314 319 322 325 307 288 263 247 249 257 258 273 269 250 317 348 227 210 217 228 247 271 278 280 328 135 112 287 147 155 199 243 117 149 125 290 174 152 162 163 173 191
328 319 306 309 313 319 321 308 277 252 234 236 242 248 251 257 194 201 304 226 222 213 226 242 260 284 305 299 65 24 278 294 174 213 228 101 42 82 249 189 164 177 177 185 187
328 320 308 304 310 315 318 307 261 233 224 223 229 242 250 239 158 242 291 268 214 209 227 247 268 282 316 316 160 219 290 240 258 181 171 123 26 84 26 15 174 172 142 162 145
328 323 317 303 304 312 316 300 244 212 209 209 224 251 257 217 217 223 217 229 235 204 237 253 268 278 295 293 286 213 262 269 240 140 109 164 256 274 252 21 39 120 152 165 148
327 323 317 305 301 309 311 268 204 192 193 193 197 254 265 261 219 197 208 221 216 211 235 256 281 285 284 288 314 245 232 232 190 217 218 101 273 264 293 314 184 130 142 138 132
326 323 318 306 294 303 251 149 162 172 178 203 203 283 237 220 212 212 212 213 208 219 223 248 284 278 276 267 253 296 334 334 152 235 272 144 197 157 217 332 174 141 145 135 140
325 321 315 301 282 266 188 146 142 209 206 209 218 223 285 191 196 197 201 217 224 210 217 226 216 234 242 248 321 212 161 250 142 280 220 169 150 192 189 164 94 98 117 112 112
323 318 311 291 264 240 207 200 97 346 266 257 245 256 269 244 176 196 192 213 224 196 220 242 227 246 249 249 251 228 245 251 141 224 180 137 132 138 123 97 123 119 120 126 129
321 316 304 282 258 246 240 220 9 26 288 272 237 230 240 228 191 202 194 211 209 211 213 222 233 232 249 251 226 245 250 284 147 212 223 95 52 25 63 87 117 125 127 141 151
319 311 289 259 241 207 254 297 222 10 288 252 183 227 225 214 266 212 197 208 234 208 230 226 248 251 248 236 198 267 245 270 297 276 218 172 199 226 36 67 112 135 143 153 169
316 302 265 219 200 206 53 102 149 226 308 156 150 190 191 193 204 219 197 202 225 232 198 243 235 246 268 253 195 259 307 293 296 302 272 66 108 235 126 165 200 157 163 172 184
312 285 239 218 225 169 155 109 209 251 247 167 156 161 183 201 234 205 197 203 223 242 249 242 255 247 240 253 223 257 286 249 240 245 358 14 39 324 268 195 218 163 166 175 183
314 260 218 208 178 189 159 285 184 238 277 146 165 168 199 190 219 222 183 191 216 209 250 260 251 265 253 262 204 243 323 320 330 353 191 66 59 294 352 356 311 328 157 176 176
325 254 214 205 169 160 185 234 244 229 254 321 164 167 203 188 224 230 172 192 219 239 208 233 270 242 254 191 210 246 208 171 240 119 186 10 147 230 140 330 283 283 144 157 156
329 267 220 187 165 166 212 218 214 237 337 261 165 174 190 212 181 227 187 198 200 224 228 221 235 247 227 174 163 265 301 232 129 78 71 280 301 286 260 349 333 338 151 164 167
308 315 260 177 177 175 244 247 246 297 308 333 175 174 175 214 193 209 194 196 214 213 223 258 289 257 224 204 199 196 220 44 10 95 122 345 272 263 26 294 285 338 156 177 171
339 280 168 191 169 202 226 242 260 272 278 357 314 308 186 196 201 214 224 200 203 222 208 235 210 278 291 195 188 224 194 151 140 150 207 135 278 217 217 169 245 332 171 179 178
329 261 179 157 177 207 236 243 259 277 293 252 261 281 278 201 193 205 220 205 207 205 215 215 201 251 248 271 181 187 211 197 206 229 82 99 259 263 207 221 258 289 352 179 186
299 271 177 180 235 229 231 251 261 270 276 251 225 278 352 290 215 205 225 232 226 191 205 203 240 281 320 318 183 177 253 231 234 249 167 120 249 211 202 184 169 102 282 241 190
308 282 170 212 249 287 291 261 253 261 262 290 310 313 24 283 260 197 209 224 246 170 205 174 183 170 233 200 179 351 327 322 350 237 151 177 157 177 195 212 146 149 232 331 191
235 287 321 244 237 239 262 285 290 280 229 263 294 33 46 13 358 1 2 15 204 149 126 143 220 217 125 188 187 202 272 292 290 274 204 152 140 154 212 234 115 146 258 305 319
333 351 334 300 286 214 234 258 270 276 327 108 55 52 26 80 81 310 343 33 31 325 171 213 237 229 255 196 155 233 237 270 283 91 72 66 84 210 217 230 176 161 185 234 282
353 336 319 291 22 6 19 350 309 353 53 51 23 78 30 310 299 230 264 280 235 22 317 290 156 201 262 229 205 237 225 236 314 138 143 129 228 191 137 178 131 181 199 214 246